Other Public Products
Issued by NWS Grand Forks, ND

Home | Current Version | Previous Version | Graphics & Text | Print | Product List | Glossary On
Versions: 1 2 3 4 5 6 7 8 9 10 11 12 13 14 15 16 17 18 19 20 21 22 23 24 25 26 27 28 29 30 31 32 33 34 35 36 37 38 39 40 41 42 43 44 45 46 47 48 49 50
000
FPUS83 KFGF 260110
OPUFGF
PRAIRIE TO PINES WEATHER ROUNDUP
NATIONAL WEATHER SERVICE EASTERN NORTH DAKOTA/GRAND FORKS ND
800 PM CDT MON MAY 25 2015

 **SATELLITE DATA USED TO AUGMENT SKY COVER AT AUTOMATED STATIONS**
 *****  WEATHER ACROSS EASTERN NORTH DAKOTA  *****

CITY           SKY/WX    TMP DP  RH WIND       PRES   REMARKS
GRAND FORKS    PTCLDY    69  51  52 S13       29.78S
GRAND FORKS AF MOSUNNY   69  54  59 S12G21    29.78S
GRAND CITY NWS   N/A     66 N/A N/A S12         N/A
BUXTON         NOT AVBL
DEVILS LAKE    MOSUNNY   73  43  33 S7        29.77S
FARGO          CLOUDY    63  55  75 E6        29.82R
WAHPETON ARPT  CLOUDY    61  50  67 NE10      29.82S
$$

 *****  WEATHER ACROSS CENTRAL AND WESTERN NORTH DAKOTA  *****

CITY           SKY/WX    TMP DP  RH WIND       PRES   REMARKS
JAMESTOWN      MOSUNNY   65  56  72 S14       29.81S
BISMARCK       CLOUDY    67  55  65 SW8       29.85S
MINOT          MOSUNNY   74  45  35 SW5       29.80F
MINOT AFB      MOSUNNY   79  43  27 SW5       29.79S
GARRISON         N/A     72  50  45 W15       29.82F
WILLISTON      MOSUNNY   70  47  43 SW12      29.87R
DICKINSON      PTSUNNY   64  47  53 S6        29.88S
HETTINGER      CLOUDY    60  50  69 S8        29.92S
$$

 *****  OTHER OBSERVATIONS NORTHEAST NORTH DAKOTA  *****

CITY           SKY/WX    TMP DP  RH WIND       PRES   REMARKS
WALHALLA         N/A     75  41  29 S3        29.74S
LANGDON        CLOUDY    73  41  31 S7        29.78R
CAVALIER       FAIR      77  41  27 SE6       29.74S
GRAFTON        FAIR      72  52  49 S15       29.76S
CANDO          FAIR      73  39  29 SW7       29.78R
FORT TOTTEN      N/A     75  38  25 SE3       29.95S
ROLLA          MOCLDY    75  37  25 NW6       29.79S
RUGBY          NOT AVBL
 ***** THE ABOVE OBSERVATIONS ARE NON NWS ARE NOT QUALITY
        CONTROLLED AND MAY MIS-REPORT RAIN FOR SNOW...
$$

 *****  OTHER OBSERVATIONS SOUTHEAST NORTH DAKOTA *****

CITY           SKY/WX    TMP DP  RH WIND       PRES   REMARKS
COOPERSTOWN    NOT AVBL
VALLEY CITY    FAIR      64  59  82 S7        29.84S
OAKES            N/A     63  55  77 CALM      29.84R
GWINNER        NOT AVBL
BUFFALO        NOT AVBL
WYNDMERE         N/A     63  54  72 NE6         N/A
 ***** THE ABOVE OBSERVATIONS ARE NON NWS ARE NOT QUALITY
       CONTROLLED AND MAY MIS-REPORT RAIN FOR SNOW...
$$

  *****  WEATHER ACROSS NORTHERN MINNESOTA  *****

CITY           SKY/WX    TMP DP  RH WIND       PRES   REMARKS
FLAG ISLAND    CLOUDY    61  55  82 SE5       29.75S
WARROAD        CLOUDY    68  55  64 S7        29.78R
ROSEAU         CLOUDY    72  52  49 SW9       29.77S
HALLOCK        MOSUNNY   75  45  33 S10       29.74S
THF RVR FALLS  CLOUDY    68  46  45 S9        29.81R
HALSTAD        NOT AVBL
FOSSTON        CLOUDY    59  55  88 CALM      29.84R
BAUDETTE       CLOUDY    64  54  69 S9        29.78R
WASKISH        CLOUDY    59  54  82 CALM      29.81S
CROOKSTON      MOCLDY    70  46  43 S10       29.80S
$$
  *****  WEATHER ACROSS CENTRAL AND WEST MINNESOTA  *****

CITY           SKY/WX    TMP DP  RH WIND       PRES   REMARKS
BEMIDJI        DRIZZLE   56  54  92 E6        29.81S
PARK RAPIDS    LGT RAIN  58  53  84 NE10G16   29.79S
WADENA         CLOUDY    55  52  88 N18G24    29.76R
DETROIT LAKES  CLOUDY    59  52  77 NE13      29.82S
MOORHEAD       CLOUDY    63  54  72 CALM      29.84R
FERGUS FALLS   CLOUDY    61  52  72 NE8       29.82R
ELBOW LAKE     CLOUDY    59  52  78 NE16G22   29.78S
MORRIS MN      CLOUDY    61  54  77 N15G21    29.76F
STAPLES        LGT RAIN  54  54 100 NE12G22   29.75R
WHEATON        PTCLDY    59  52  77 N10       29.82S
$$
  *****  WEATHER ELSEWHERE ACROSS MINNESOTA  *****

CITY           SKY/WX    TMP DP  RH WIND       PRES   REMARKS
DULUTH         LGT RAIN  50  48  93 NE7       29.74S FOG
INTRNTL FALLS  CLOUDY    57  53  86 CALM      29.80S
ELY            LGT RAIN  55  52  88 NE5       29.77S
CLOQUET        DRIZZLE   48  46  93 E3        29.75R
BRAINERD       LGT RAIN  56  55  97 N15       29.73R FOG
HIBBING        LGT RAIN  56  51  84 NE9       29.77R
ALEXANDRIA     CLOUDY    57  53  86 N14       29.76R
SAINT CLOUD    CLEAR     65  57  75 SW10      29.70S
MINNEAPOLIS    MOCLDY    72  58  61 SW8       29.72S
$$

  *****  WEATHER ACROSS SOUTH DAKOTA  *****

CITY           SKY/WX    TMP DP  RH WIND       PRES   REMARKS
SIOUX FALLS    PTCLDY    67  59  75 N5        29.77R
BROOKINGS      PTCLDY    61  54  77 N12       29.78R
WATERTOWN      MOCLDY    59  52  77 N18G26    29.78S
HURON          PTCLDY    64  50  60 NE20G29   29.77F
SISSETON         N/A     62  52  69 NE15      29.80S
ABERDEEN       CLOUDY    66  50  56 NE9       29.82F
MITCHELL       PTCLDY    66  56  70 N15       29.77R
PIERRE         CLOUDY    62  51  67 NE10      29.83R
MOBRIDGE       CLOUDY    64  56  75 S6        29.84F
RAPID CITY     CLOUDY    55  53  93 NE12      29.89R
$$

  *****  SOME WEATHER IN NEARBY STATES *****

CITY           SKY/WX    TMP DP  RH WIND       PRES   REMARKS
GLASGOW MT     SUNNY     72  46  39 S17       29.84S
GREAT FALLS MT MOSUNNY   68  42  38 E9        29.82F
CHEYENNE WY    CLOUDY    53  41  63 N7        29.97R
SCOTTSBLUFF NE CLOUDY    56  53  90 W7        29.89S
OMAHA NE       CLOUDY    72  59  63 S23G31    29.76R
DES MOINES IA  CLOUDY    75  64  68 S9        29.80R
DAVENPORT IA   PTCLDY    75  59  57 S13       29.89R
CHICAGO IL     PTCLDY    76  60  57 S10       29.90F
EAU CLAIRE WI  MOCLDY    66  63  90 SW3       29.75S
LA CROSSE WI   CLEAR     73  64  73 CALM      29.76S
$$

  *****  SOME NATIONAL WEATHER *****

CITY           SKY/WX    TMP DP  RH WIND       PRES   REMARKS
LA GUARDIA NY  MOCLDY    74  56  53 S9        30.17R
RALEIGH NC     PTCLDY    75  55  49 S3        30.25S
ATLANTA GA     TSTM      70  68  94 SE6       30.23R FOG
NEW ORLEANS LA LGT RAIN  73  68  84 E9        30.01F
OKLAHOMA CITY  CLOUDY    62  58  86 SE3       29.80R
ALBUQUERQUE NM CLOUDY    59  48  67 E8        30.02R
SALT LAKE CITY PTSUNNY   68  41  37 CALM      29.93S
LOS ANGELES CA MOSUNNY   64  56  75 W12       29.96F
BOISE ID       CLOUDY    69  47  45 SE15G23   29.84F
SEATTLE WA     CLOUDY    58  49  72 S6        30.02S
$$

*** WEATHER ACROSS MANITOBA...SASKATCHEWAN AND ONTARIO ***
                ***ONTARIO***

CITY           SKY/WX    TMP DP  RH WIND       PRES   REMARKS
GERALDTON      LGT RAIN  57  55  94 SW2       29.81R
THUNDER BAY    LGT RAIN  55  54  94 NE8       29.75R
SIOUX LOOKOUT  CLOUDY    68  54  60 S12       29.74R
TORONTO        PTCLDY    77  61  57 SW18G32   29.94R
BIG TROUT LK   CLEAR     66  39  37 VRB2      29.75F
PICKLE LAKE    CLOUDY    70  34  26 SE6       29.75S
DRYDEN         MOCLDY    68  52  56 SW9       29.75R
KENORA         CLOUDY    66  52  59 SW7       29.76S
$$
                *** MANITOBA***

CITY           SKY/WX    TMP DP  RH WIND       PRES   REMARKS
BRANDON        NOT AVBL
DAUPHIN        MOSUNNY   77  41  27 E6        29.74R
ISLAND LAKE    MOSUNNY   73  39  29 VRB2      29.70F
PILOT MOUND      N/A     73  39  29 NW6         N/A
THE PAS        NOT AVBL
THOMPSON       PTSUNNY   75  41  29 VRB2      29.60F
WINNIPEG       PTSUNNY   79  46  31 CALM      29.72S
LYNN LAKE      CLOUDY    48  37  66 NE24G35   29.75R
CHURCHILL      CLOUDY    27  21  80 NE17      29.98S WCI  14
GILLAM         MOSUNNY   50  32  50 NE14G29   29.72F
$$
                ***SASKATCHEWAN***

CITY           SKY/WX    TMP DP  RH WIND       PRES   REMARKS
ESTEVAN        CLOUDY    75  39  27 CALM      29.82S
KINDERSLEY     PTSUNNY   77  32  19 VRB2      29.82S
LLOYDMINSTER   PTSUNNY   75  32  20 N6        29.81S
PRINCE ALBERT  CLOUDY    72  45  37 S8        29.76F
REGINA         PTSUNNY   73  41  31 NW8       29.82S
YORKTON        SUNNY     73  45  35 W3        29.77F



USA.gov is the U.S. government's official web portal to all federal, state and local government web resources and services.